Location: Black Swamp Observatory
(41.3920°N, 84.1250°W)
Time: 03:23:38
(UTC-05:00)

X-37B - Pass Details

Date: 06 December 2021
Orbit: 331 x 339 km, 45.0° (Epoch: 27 January)

Event Time Altitude Azimuth Distance (km) Brightness Sun altitude
Rises 19:31:53 0° 251° (WSW) 2,091 5.6 -26.4°
Reaches altitude 10° 19:33:52 10° 253° (WSW) 1,257 4.1 -26.8°
Enters shadow 19:34:18 13° 253° (WSW) 1,080 3.7 -26.9°
